TimePST,TemperatureF,Dew PointF,Humidity,Sea Level PressureIn,VisibilityMPH,Wind Direction,Wind SpeedMPH,Gust SpeedMPH,PrecipitationIn,Events,Conditions,WindDirDegrees,DateUTC
12:24 AM,46.4,39.2,76,29.64,10.0,SSE,17.3,24.2,N/A,,Overcast,150,2012-11-18 08:24:00
12:34 AM,46.4,39.2,76,29.64,10.0,SSE,16.1,21.9,N/A,,Overcast,150,2012-11-18 08:34:00
12:53 AM,46.9,39.0,74,29.67,10.0,SSE,18.4,25.3,N/A,,Overcast,150,2012-11-18 08:53:00
1:29 AM,46.4,39.2,76,29.65,10.0,SSE,17.3,24.2,N/A,,Overcast,150,2012-11-18 09:29:00
1:53 AM,46.9,37.9,71,29.68,10.0,SSE,13.8,24.2,N/A,,Overcast,150,2012-11-18 09:53:00
2:53 AM,46.9,37.9,71,29.69,10.0,SSE,19.6,31.1,N/A,,Overcast,150,2012-11-18 10:53:00
3:53 AM,46.9,37.9,71,29.70,10.0,SSE,18.4,28.8,N/A,,Overcast,150,2012-11-18 11:53:00
4:53 AM,46.9,39.0,74,29.71,10.0,South,17.3,31.1,N/A,,Overcast,170,2012-11-18 12:53:00
5:53 AM,46.9,39.0,74,29.71,10.0,SSE,18.4,28.8,0.00,,Overcast,150,2012-11-18 13:53:00
6:53 AM,46.9,37.9,71,29.72,10.0,SE,15.0,24.2,N/A,,Overcast,140,2012-11-18 14:53:00
7:53 AM,48.0,37.9,68,29.71,10.0,SSE,17.3,27.6,N/A,,Overcast,150,2012-11-18 15:53:00
8:35 AM,48.2,37.4,66,29.67,10.0,SSE,18.4,31.1,N/A,,Overcast,150,2012-11-18 16:35:00
8:53 AM,48.0,37.9,68,29.70,10.0,SE,15.0,34.5,N/A,,Overcast,140,2012-11-18 16:53:00
9:53 AM,48.0,39.0,71,29.70,10.0,SSE,20.7,32.2,N/A,,Overcast,150,2012-11-18 17:53:00
10:34 AM,48.2,37.4,66,29.68,10.0,SSE,19.6,32.2,N/A,,Overcast,150,2012-11-18 18:34:00
10:49 AM,48.2,37.4,66,29.68,10.0,SSE,20.7,32.2,N/A,,Overcast,150,2012-11-18 18:49:00
10:53 AM,48.9,37.9,66,29.71,10.0,SSE,18.4,32.2,N/A,,Overcast,150,2012-11-18 18:53:00
11:53 AM,50.0,39.0,66,29.70,10.0,SE,17.3,31.1,N/A,,Mostly Cloudy,140,2012-11-18 19:53:00
12:26 PM,50.0,37.4,62,29.67,10.0,SE,23.0,29.9,N/A,,Overcast,140,2012-11-18 20:26:00
12:53 PM,50.0,37.9,63,29.68,10.0,SE,17.3,29.9,N/A,,Overcast,140,2012-11-18 20:53:00
1:53 PM,50.0,37.9,63,29.65,10.0,SSE,21.9,33.4,N/A,,Overcast,150,2012-11-18 21:53:00
2:53 PM,51.1,37.9,61,29.62,10.0,ESE,17.3,26.5,N/A,,Mostly Cloudy,120,2012-11-18 22:53:00
3:53 PM,51.1,37.0,59,29.60,10.0,SE,18.4,27.6,N/A,,Overcast,130,2012-11-18 23:53:00
4:53 PM,51.1,37.0,59,29.57,10.0,SE,20.7,26.5,N/A,,Overcast,130,2012-11-19 00:53:00
5:53 PM,51.1,37.9,61,29.51,10.0,ESE,12.7,28.8,N/A,,Overcast,120,2012-11-19 01:53:00
6:53 PM,50.0,39.9,68,29.47,9.0,SE,21.9,34.5,0.00,Rain,Light Rain,130,2012-11-19 02:53:00
7:53 PM,50.0,41.0,71,29.48,10.0,SE,20.7,35.7,0.00,,Overcast,140,2012-11-19 03:53:00
8:53 PM,51.1,39.9,66,29.50,10.0,SE,20.7,39.1,N/A,,Overcast,140,2012-11-19 04:53:00
9:53 PM,52.0,41.0,66,29.51,10.0,SSE,25.3,40.3,N/A,,Mostly Cloudy,150,2012-11-19 05:53:00
10:53 PM,53.1,41.0,64,29.51,10.0,SSE,21.9,36.8,N/A,,Overcast,150,2012-11-19 06:53:00
11:17 PM,53.6,42.8,67,29.49,10.0,SSE,24.2,39.1,N/A,,Overcast,150,2012-11-19 07:17:00
11:39 PM,53.6,42.8,67,29.49,10.0,SSE,28.8,42.6,N/A,,Overcast,150,2012-11-19 07:39:00
11:53 PM,53.1,42.1,66,29.51,10.0,SSE,29.9,41.4,N/A,,Overcast,150,2012-11-19 07:53:00